Location: ??????
(31.2056°N, 45.3906°E)
Time: 14:02:48
(UTC+00:00)

Cosmos 1726 - Pass Details

Date: 09 April 2020
Orbit: 482 x 499 km, 82.5° (Epoch: 04 June)

Event Time Altitude Azimuth Distance (km) Brightness Sun altitude
Rises 15:47:27 0° 180° (S) 2,575 5.6 -5.9°
Reaches altitude 10° 15:49:33 10° 177° (S) 1,696 4.7 -6.4°
Maximum altitude 15:53:15 68° 95° (E) 540 2.1 -7.1°
Drops below altitude 10° 15:56:57 10° 12° (NNE) 1,705 4.9 -7.9°
Sets 15:59:05 0° 10° (N) 2,590 5.8 -8.3°
